Starlink 30290

operational
NORAD ID: 57858 Int'l Des: 2023-141 Owner: SPXS Country: US Constellation: starlink
LEOCIRCULAR

About Starlink 30290

Description loading...

Live Position

Loading 3D Globe...

Upcoming Passes

Altitude History

Altitude vs Time

uPlot chart will show altitude changes over time

Two-Line Element Set

1 57858U 23141U 25303.01391482 -.00000905 00000-0 -18427-4 0 9997
2 57858 53.1602 170.9096 0001235 97.3758 262.7383 15.30186494120324
Epoch: Oct 30, 2025 • Age: 17 hours

Current Status

Altitude 492.9 km
Velocity 7.62 km/s
Sub-Earth Point -48.97°S, 170.39°E
Launch Date Sep 12, 2023
Age 2.1 years
Type internet

Technical Details

Classification Payload
Mass 730.00 kg
Dry Mass 700.00 kg
Total Mass 730.00 kg
Length 0.30 m
Diameter 4.10 m
Span 29.00 m
Shape Box + pan
Manufacturer SPXS
Bus Type Starlink V2M
Phase Status In Orbit
Owner/State SPXS/US

Large Constellations

Loading constellations...